Regional Weather Roundup
Issued by NWS

Home | Current Version | Previous Version | Text Only | Print | Product List | Glossary Off
Versions: 1 2 3 4 5 6 7 8 9 10 11 12 13 14 15 16 17 18 19 20 21 22 23 24 25 26 27 28

000
ASUS45 KBOI 240210
RWRID
WEATHER ROUNDUP FOR IDAHO
NATIONAL WEATHER SERVICE BOISE ID
800 PM MDT THU OCT 23 2014

NOTE: "FAIR" INDICATES FEW OR NO CLOUDS BELOW 12000 FEET
WITH NO SIGNIFICANT WEATHER AND/OR OBSTRUCTIONS TO VISIBILITY

IDZ012-014-240300-
SOUTHWEST IDAHO


CITY           SKY/WX    TMP DP  RH WIND       PRES   REMARKS
BOISE          LGT RAIN  54  50  86 N12       30.07R
CALDWELL       CLOUDY    54  45  71 N5        30.07S
MOUNTAIN HOME  CLOUDY    58  47  66 NW9       30.04R
$$

IDZ016-017-240300-
SOUTHCENTRAL IDAHO


CITY           SKY/WX    TMP DP  RH WIND       PRES   REMARKS
BURLEY         CLOUDY    53  40  61 CALM      30.07S
JEROME         CLOUDY    55  40  56 VRB3      30.09R
TWIN FALLS     CLOUDY    57  38  48 CALM      30.08S
$$

IDZ019>023-240300-
SOUTHEAST IDAHO


CITY           SKY/WX    TMP DP  RH WIND       PRES   REMARKS
IDAHO FALLS    MOCLDY    51  34  52 S6        30.10R
POCATELLO      CLEAR     48  33  56 S7        30.10R
REXBURG        MOCLDY    50  32  50 S3        30.08R
$$

IDZ006-010-011-018-031-032-240300-
CENTRAL IDAHO MOUNTAINS


CITY           SKY/WX    TMP DP  RH WIND       PRES   REMARKS
MCCALL         LGT RAIN  45  41  86 S3        30.03S
HAILEY         CLOUDY    50  45  81 S6        30.12F
STANLEY          N/A     43  40  89 W3        30.09R
SALMON         CLOUDY    54  43  66 SE8       29.95R
CHALLIS        CLOUDY    54  36  50 W6        30.01R
$$

IDZ002-004-006-007-026-240300-
NORTHERN IDAHO


CITY           SKY/WX    TMP DP  RH WIND       PRES   REMARKS
LEWISTON       CLOUDY    56  46  69 E3        29.95R
LOWELL           N/A     52  51  97 CALM      29.99R
COEUR D`ALENE  CLOUDY    50  45  81 S9        29.89R
MULLAN PASS    LGT RAIN  35  35 100 SW8       29.92R FOG     WCI  29
$$



USA.gov is the U.S. government's official web portal to all federal, state and local government web resources and services.